Simultaneous Nadir Overpasses (SNOs) Predictions

Prediction of SNOs between LANDSAT-8 and NOAA-19 Satellite Orbit:

Table of predicted SNOs for the next 14.0 days since TLE Epoch: 5/28/2022
Index Date (LANDSAT-8) Time (LANDSAT-8) Lat,Lon (LANDSAT-8) SZA (LANDSAT-8 ) Date (NOAA-19) Time (NOAA-19) Lat,Lon (NOAA-19) SZA (NOAA-19 ) Distance(km) Time Diff (sec)
1 05/28/2022 08:33:22 -80.78, -93.00 118.87 05/28/2022 08:33:20 -80.78, -93.01 118.86 0.72 2
2 05/30/2022 14:07:08 80.78, 3.59 60.79 05/30/2022 14:06:20 80.79, 3.52 60.78 1.79 48
3 05/30/2022 14:56:35 -80.78, 171.20 119.22 05/30/2022 14:57:16 -80.78, 171.20 119.20 0.42 41
4 06/01/2022 20:30:21 80.77, -92.31 60.46 06/01/2022 20:30:16 80.79, -92.16 60.48 3.11 5
5 06/04/2022 02:04:07 -80.78, 4.39 119.81 06/04/2022 02:03:10 -80.80, 4.26 119.83 2.68 57
6 06/04/2022 02:53:33 80.79, 172.06 60.20 06/04/2022 02:54:12 80.78, 172.10 60.21 0.77 39
7 06/06/2022 08:27:19 -80.79, -91.29 120.05 06/06/2022 08:27:05 -80.79, -91.31 120.06 0.54 14
8 06/08/2022 14:01:04 80.79, 5.27 59.74 06/08/2022 14:00:06 80.80, 5.22 59.71 0.97 58
9 06/08/2022 14:50:31 -80.80, 172.96 120.26 06/08/2022 14:51:00 -80.78, 173.07 120.25 2.57 29
10 06/10/2022 20:24:16 80.79, -90.57 59.54 06/10/2022 20:24:02 80.80, -90.71 59.53 2.72 14



Historial Predications of SNOs between LANDSAT-8 and NOAA-19
